Location: Unspecified
(0.0000°N, 0.0000°E)
Time: 07:33:02
(UTC+00:00)

N. Korean satellite - Pass Details

Date: 08 July 2020
Orbit: 453 x 505 km, 97.2° (Epoch: 25 October)

Event Time Altitude Azimuth Distance (km) Brightness Sun altitude
Rises 05:11:50 0° 12° (NNE) 2,446 10.7 -12.3°
Reaches altitude 10° 05:13:51 10° 13° (NNE) 1,577 9.7 -11.8°
Maximum altitude 05:17:13 83° 98° (E) 459 6.4 -11.1°
Drops below altitude 10° 05:20:38 10° 189° (S) 1,592 8.9 -10.3°
Enters shadow 05:23:08 -2° 190° (S) 2,673 10.0 -9.7°
